Torna al catalogo

SL-12 R/B(2)

AttivoGEO
NORAD 22272·ROCKET BODY·🇷🇺 Russia

Lanciato Dec 17, 1992 da Baikonur Cosmodrome

Loading…

TLE

AggiornatoSource: Space-Track

Epoca: Sep 14, 2026, 12:25 UTC

1 22272U 92088D   26257.51788566  .00000090  00000-0  00000-0 0  9999
2 22272  13.7092 347.7900 0009264 175.1029 219.7871  1.00065163 48183

Traccia SL-12 R/B(2) in tempo reale con AllMySat

Download on the App Store